,,,PA_Meas_PMT16A,,PR_Meas_QMR101_102,,RH_Meas_QMH101,,SR_Meas_QMS101,,TA_Meas_QMH101,,GenWind,,GenWind,
date,time,status,PA,status,PR,status,RH,status,SR,status,TA,status,DirAvg,status,SpdAvg,
2011-06-19, 00:00:04,VALID,1000.37,VALID,0,VALID,85.1542,VALID,0,VALID,25.046,VALID,117,VALID,0.393359,
2011-06-19, 00:01:04,VALID,1000.35,VALID,0,VALID,85.0779,VALID,0,VALID,25.0479,VALID,117,VALID,0.542578,
2011-06-19, 00:02:04,VALID,1000.33,VALID,0,VALID,84.6812,VALID,0,VALID,25.0888,VALID,117,VALID,0.79375,
2011-06-19, 00:03:04,VALID,1000.33,VALID,0,VALID,84.849,VALID,0,VALID,25.1279,VALID,117,VALID,0.689062,
2011-06-19, 00:04:04,VALID,1000.28,VALID,0,VALID,85.6425,VALID,0,VALID,25.1064,VALID,105,VALID,0.83125,
2011-06-19, 00:05:04,VALID,1000.3,VALID,0,VALID,86.2071,VALID,0,VALID,25.0674,VALID,105,VALID,0.642578,
2011-06-19, 00:06:04,VALID,1000.29,VALID,0,VALID,86.4054,VALID,0,VALID,25.0284,VALID,106,VALID,0.735156,
2011-06-19, 00:07:04,VALID,1000.3,VALID,0,VALID,86.436,VALID,0,VALID,24.9698,VALID,112,VALID,0.438281,
2011-06-19, 00:08:04,VALID,1000.28,VALID,0,VALID,86.5046,VALID,0,VALID,24.9308,VALID,112,VALID,0.179297,
2011-06-19, 00:09:04,VALID,1000.27,VALID,0,VALID,86.9166,VALID,0,VALID,24.9522,VALID,112,VALID,0.229297,
2011-06-19, 00:10:04,VALID,1000.27,VALID,0,VALID,87.3286,VALID,0,VALID,24.8917,VALID,38,VALID,0.576953,
2011-06-19, 00:11:04,VALID,1000.27,VALID,0,VALID,87.5423,VALID,0,VALID,24.8546,VALID,37,VALID,0.684375,
2011-06-19, 00:12:04,VALID,1000.29,VALID,0,VALID,88.0687,VALID,0,VALID,24.8136,VALID,30,VALID,0.757422,
2011-06-19, 00:13:04,VALID,1000.3,VALID,0,VALID,88.2976,VALID,0,VALID,24.7551,VALID,30,VALID,0.61875,
2011-06-19, 00:14:04,VALID,1000.26,VALID,0,VALID,88.3586,VALID,0,VALID,24.7374,VALID,30,VALID,0.540234,
2011-06-19, 00:15:04,VALID,1000.23,VALID,0,VALID,88.4731,VALID,0,VALID,24.6965,VALID,30,VALID,0.757422,
2011-06-19, 00:16:04,VALID,1000.24,VALID,0,VALID,88.7096,VALID,0,VALID,24.6789,VALID,30,VALID,0.964063,
2011-06-19, 00:17:04,VALID,1000.22,VALID,0,VALID,88.9309,VALID,0,VALID,24.5794,VALID,14,VALID,0.932031,
2011-06-19, 00:18:04,VALID,1000.25,VALID,0,VALID,88.9232,VALID,0,VALID,24.5227,VALID,14,VALID,0.553125,
2011-06-19, 00:19:04,VALID,1000.27,VALID,0,VALID,88.9766,VALID,0,VALID,24.4623,VALID,14,VALID,0.541016,
2011-06-19, 00:20:04,VALID,1000.26,VALID,0,VALID,89.0071,VALID,0,VALID,24.4251,VALID,40,VALID,0.849609,
2011-06-19, 00:21:04,VALID,1000.26,VALID,0,VALID,89.175,VALID,0,VALID,24.3647,VALID,48,VALID,1.56875,
2011-06-19, 00:22:04,VALID,1000.23,VALID,0,VALID,89.0148,VALID,0,VALID,24.3257,VALID,46,VALID,1.49531,
2011-06-19, 00:23:04,VALID,1000.22,VALID,0,VALID,89.1597,VALID,0,VALID,24.308,VALID,32,VALID,1.00078,
2011-06-19, 00:24:04,VALID,1000.22,VALID,0,VALID,89.2666,VALID,0,VALID,24.2885,VALID,16,VALID,1.09883,
2011-06-19, 00:25:04,VALID,1000.2,VALID,0,VALID,89.3963,VALID,0,VALID,24.2281,VALID,15,VALID,1.36563,
2011-06-19, 00:26:04,VALID,1000.25,VALID,0,VALID,89.5183,VALID,0,VALID,24.1891,VALID,14,VALID,1.46836,
2011-06-19, 00:27:04,VALID,1000.28,VALID,0,VALID,89.648,VALID,0,VALID,24.1305,VALID,16,VALID,1.16133,
2011-06-19, 00:28:04,VALID,1000.27,VALID,0,VALID,89.648,VALID,0,VALID,24.111,VALID,13,VALID,1.04141,
2011-06-19, 00:29:04,VALID,1000.25,VALID,0,VALID,89.5031,VALID,0,VALID,24.1128,VALID,350,VALID,0.840234,
2011-06-19, 00:30:04,VALID,1000.28,VALID,0,VALID,89.5565,VALID,0,VALID,24.1128,VALID,347,VALID,0.673047,
2011-06-19, 00:31:04,VALID,1000.26,VALID,0,VALID,89.5946,VALID,0,VALID,24.1092,VALID,342,VALID,0.547656,
2011-06-19, 00:32:04,VALID,1000.28,VALID,0,VALID,89.6557,VALID,0,VALID,24.1305,VALID,342,VALID,0.408203,
2011-06-19, 00:33:04,VALID,1000.25,VALID,0,VALID,89.6786,VALID,0,VALID,24.1287,VALID,342,VALID,0.167578,
2011-06-19, 00:34:04,VALID,1000.24,VALID,0,VALID,89.6709,VALID,0,VALID,24.1092,VALID,342,VALID,0.387891,
2011-06-19, 00:35:04,VALID,1000.24,VALID,0,VALID,89.5794,VALID,0,VALID,24.15,VALID,342,VALID,0.539453,
2011-06-19, 00:36:04,VALID,1000.19,VALID,0,VALID,89.5794,VALID,0,VALID,24.15,VALID,21,VALID,0.943359,
2011-06-19, 00:37:04,VALID,1000.18,VALID,0,VALID,89.6023,VALID,0,VALID,24.1696,VALID,28,VALID,0.911719,
2011-06-19, 00:38:04,VALID,1000.2,VALID,0,VALID,89.6175,VALID,0,VALID,24.1482,VALID,28,VALID,0.671875,
2011-06-19, 00:39:04,VALID,1000.21,VALID,0,VALID,89.6938,VALID,0,VALID,24.1696,VALID,44,VALID,0.934766,
2011-06-19, 00:40:04,VALID,1000.2,VALID,0,VALID,89.7549,VALID,0,VALID,24.1696,VALID,20,VALID,1.77422,
2011-06-19, 00:41:04,VALID,1000.23,VALID,0,VALID,89.8311,VALID,0,VALID,24.1696,VALID,23,VALID,1.34492,
2011-06-19, 00:42:04,VALID,1000.22,VALID,0,VALID,89.9456,VALID,0,VALID,24.1696,VALID,25,VALID,1.14844,
2011-06-19, 00:43:04,VALID,1000.23,VALID,0,VALID,89.9532,VALID,0,VALID,24.15,VALID,15,VALID,1.75234,
2011-06-19, 00:44:04,VALID,1000.26,VALID,0,VALID,89.8693,VALID,0,VALID,24.15,VALID,16,VALID,1.51758,
2011-06-19, 00:45:04,VALID,1000.28,VALID,0,VALID,89.8388,VALID,0,VALID,24.1092,VALID,5,VALID,0.971875,
2011-06-19, 00:46:04,VALID,1000.25,VALID,0,VALID,89.8464,VALID,0,VALID,24.1092,VALID,3,VALID,0.798828,
2011-06-19, 00:47:04,VALID,1000.22,VALID,0,VALID,89.8464,VALID,0,VALID,24.15,VALID,346,VALID,1.01992,
2011-06-19, 00:48:04,VALID,1000.22,VALID,0,VALID,89.8769,VALID,0,VALID,24.15,VALID,334,VALID,0.804297,
2011-06-19, 00:49:04,VALID,1000.17,VALID,0,VALID,89.8693,VALID,0,VALID,24.1696,VALID,281,VALID,0.708203,
2011-06-19, 00:50:04,VALID,1000.14,VALID,0,VALID,89.6557,VALID,0,VALID,24.1891,VALID,272,VALID,0.749219,
2011-06-19, 00:51:04,VALID,1000.13,VALID,0,VALID,89.4268,VALID,0,VALID,24.2281,VALID,272,VALID,0.132813,
2011-06-19, 00:52:04,VALID,1000.12,VALID,0,VALID,89.2818,VALID,0,VALID,24.2067,VALID,272,VALID,0,
2011-06-19, 00:53:04,VALID,1000.11,VALID,0,VALID,89.2894,VALID,0,VALID,24.2067,VALID,272,VALID,0.0511719,
2011-06-19, 00:54:04,VALID,1000.07,VALID,0,VALID,89.2437,VALID,0,VALID,24.2067,VALID,30,VALID,0.858984,
2011-06-19, 00:55:04,VALID,1000.07,VALID,0,VALID,89.1597,VALID,0,VALID,24.2476,VALID,32,VALID,0.748828,
2011-06-19, 00:56:04,VALID,1000.05,VALID,0,VALID,89.114,VALID,0.112286,VALID,24.2458,VALID,32,VALID,0.446484,
2011-06-19, 00:57:04,VALID,1000.05,VALID,0,VALID,89.1445,VALID,0,VALID,24.2263,VALID,32,VALID,0.478906,
2011-06-19, 00:58:04,VALID,1000.05,VALID,0,VALID,89.1445,VALID,0,VALID,24.2476,VALID,32,VALID,0.289453,
2011-06-19, 00:59:04,VALID,1000.01,VALID,0,VALID,89.1903,VALID,0,VALID,24.2263,VALID,32,VALID,0.613281,
2011-06-19, 01:00:04,VALID,999.999,VALID,0,VALID,89.0529,VALID,0,VALID,24.2263,VALID,12,VALID,0.849219,
2011-06-19, 01:01:04,VALID,1000.01,VALID,0,VALID,88.9843,VALID,0,VALID,24.2458,VALID,12,VALID,0.645312,
2011-06-19, 01:02:04,VALID,1000.01,VALID,0,VALID,89.0987,VALID,0,VALID,24.2458,VALID,12,VALID,0.407422,
2011-06-19, 01:03:04,VALID,1000.01,VALID,0,VALID,89.2589,VALID,0,VALID,24.2458,VALID,12,VALID,0.335547,
2011-06-19, 01:04:04,VALID,1000,VALID,0,VALID,89.4344,VALID,0,VALID,24.2671,VALID,12,VALID,0.0429688,
2011-06-19, 01:05:04,VALID,1000.04,VALID,0,VALID,89.4802,VALID,0,VALID,24.2263,VALID,12,VALID,0.242188,
2011-06-19, 01:06:04,VALID,1000.02,VALID,0,VALID,89.5641,VALID,0.112286,VALID,24.2067,VALID,12,VALID,0.282813,
2011-06-19, 01:07:04,VALID,1000,VALID,0,VALID,89.6251,VALID,0,VALID,24.2067,VALID,12,VALID,0.251953,
2011-06-19, 01:08:04,VALID,999.983,VALID,0,VALID,89.648,VALID,0,VALID,24.2281,VALID,12,VALID,0.226172,
2011-06-19, 01:09:04,VALID,999.983,VALID,0,VALID,89.587,VALID,0.112286,VALID,24.1872,VALID,12,VALID,0.267188,
2011-06-19, 01:10:04,VALID,999.968,VALID,0,VALID,89.4497,VALID,0,VALID,24.2067,VALID,12,VALID,0.138672,
2011-06-19, 01:11:04,VALID,999.97,VALID,0,VALID,89.2742,VALID,0.112286,VALID,24.2067,VALID,12,VALID,0.345313,
2011-06-19, 01:12:04,VALID,999.956,VALID,0,VALID,89.2894,VALID,0.112286,VALID,24.2263,VALID,12,VALID,0.00820312,
2011-06-19, 01:13:04,VALID,999.961,VALID,0,VALID,89.3963,VALID,0,VALID,24.2458,VALID,12,VALID,0.385547,
2011-06-19, 01:14:04,VALID,999.974,VALID,0,VALID,89.526,VALID,0.112286,VALID,24.2458,VALID,12,VALID,0.336719,
2011-06-19, 01:15:04,VALID,999.969,VALID,0,VALID,89.4573,VALID,0,VALID,24.2458,VALID,12,VALID,0.188281,
2011-06-19, 01:16:04,VALID,999.956,VALID,0,VALID,89.3047,VALID,0,VALID,24.2281,VALID,12,VALID,0,
2011-06-19, 01:17:04,VALID,999.921,VALID,0,VALID,89.4039,VALID,0,VALID,24.2671,VALID,12,VALID,0,
2011-06-19, 01:18:04,VALID,999.983,VALID,0,VALID,89.4497,VALID,0,VALID,24.2671,VALID,12,VALID,0,
2011-06-19, 01:19:04,VALID,999.964,VALID,0,VALID,89.4344,VALID,0,VALID,24.2671,VALID,12,VALID,0,
2011-06-19, 01:20:04,VALID,999.988,VALID,0,VALID,89.4344,VALID,0,VALID,24.2671,VALID,12,VALID,0.667969,
2011-06-19, 01:21:04,VALID,999.997,VALID,0,VALID,89.526,VALID,0,VALID,24.2458,VALID,12,VALID,0.781641,
2011-06-19, 01:22:04,VALID,999.986,VALID,0,VALID,89.5183,VALID,0,VALID,24.2671,VALID,12,VALID,1.0707,
2011-06-19, 01:23:04,VALID,999.977,VALID,0,VALID,89.5336,VALID,0,VALID,24.2866,VALID,13,VALID,1.12461,
2011-06-19, 01:24:04,VALID,999.997,VALID,0,VALID,89.5412,VALID,0,VALID,24.2671,VALID,22,VALID,1.12773,
2011-06-19, 01:25:04,VALID,999.98,VALID,0,VALID,89.6404,VALID,0,VALID,24.2671,VALID,22,VALID,1.37031,
2011-06-19, 01:26:04,VALID,999.954,VALID,0,VALID,89.6023,VALID,0,VALID,24.2281,VALID,22,VALID,1.14375,
2011-06-19, 01:27:04,VALID,999.989,VALID,0,VALID,89.6709,VALID,0,VALID,24.2281,VALID,24,VALID,1.33984,
2011-06-19, 01:28:04,VALID,999.963,VALID,0,VALID,89.7777,VALID,0,VALID,24.1891,VALID,23,VALID,1.14609,
2011-06-19, 01:29:04,VALID,999.949,VALID,0,VALID,89.8235,VALID,0,VALID,24.1696,VALID,25,VALID,0.883203,
2011-06-19, 01:30:04,VALID,999.916,VALID,0,VALID,89.8846,VALID,0,VALID,24.1696,VALID,28,VALID,0.761719,
2011-06-19, 01:31:04,VALID,999.926,VALID,0,VALID,90.0371,VALID,0,VALID,24.15,VALID,28,VALID,0.676562,
2011-06-19, 01:32:04,VALID,999.881,VALID,0,VALID,90.1211,VALID,0,VALID,24.15,VALID,28,VALID,0.632031,
2011-06-19, 01:33:04,VALID,999.849,VALID,0,VALID,90.2126,VALID,0,VALID,24.1305,VALID,38,VALID,0.891016,
2011-06-19, 01:34:04,VALID,999.832,VALID,0,VALID,90.3194,VALID,0,VALID,24.111,VALID,47,VALID,1.01992,
2011-06-19, 01:35:04,VALID,999.8,VALID,0,VALID,90.3271,VALID,0,VALID,24.0915,VALID,46,VALID,0.816797,
2011-06-19, 01:36:04,VALID,999.794,VALID,0,VALID,90.3347,VALID,0,VALID,24.0915,VALID,54,VALID,0.982813,
2011-06-19, 01:37:04,VALID,999.792,VALID,0,VALID,90.2355,VALID,0,VALID,24.111,VALID,54,VALID,0.716406,
2011-06-19, 01:38:04,VALID,999.726,VALID,0,VALID,90.0982,VALID,0,VALID,24.0915,VALID,54,VALID,1.00664,
2011-06-19, 01:39:04,VALID,999.721,VALID,0,VALID,89.9532,VALID,0,VALID,24.1305,VALID,54,VALID,0.773438,
2011-06-19, 01:40:04,VALID,999.746,VALID,0,VALID,89.8083,VALID,0,VALID,24.1305,VALID,54,VALID,0.315234,
2011-06-19, 01:41:04,VALID,999.76,VALID,0,VALID,89.7091,VALID,0,VALID,24.15,VALID,54,VALID,0.199609,
2011-06-19, 01:42:04,VALID,999.724,VALID,0,VALID,89.6938,VALID,0,VALID,24.1696,VALID,262,VALID,0.836719,
2011-06-19, 01:43:04,VALID,999.753,VALID,0,VALID,89.7625,VALID,0,VALID,24.1891,VALID,233,VALID,0.707031,
2011-06-19, 01:44:04,VALID,999.7,VALID,0,VALID,89.6175,VALID,0,VALID,24.2281,VALID,233,VALID,0.170312,
2011-06-19, 01:45:04,VALID,999.695,VALID,0,VALID,89.442,VALID,0,VALID,24.2281,VALID,233,VALID,0.482812,
2011-06-19, 01:46:04,VALID,999.728,VALID,0,VALID,89.3352,VALID,0,VALID,24.2263,VALID,233,VALID,0.397656,
2011-06-19, 01:47:04,VALID,999.683,VALID,0,VALID,89.3047,VALID,0,VALID,24.2263,VALID,233,VALID,0.333594,
2011-06-19, 01:48:04,VALID,999.674,VALID,0,VALID,89.3505,VALID,0,VALID,24.2067,VALID,233,VALID,0.314453,
2011-06-19, 01:49:04,VALID,999.671,VALID,0,VALID,89.3047,VALID,0,VALID,24.2067,VALID,233,VALID,0.348828,
2011-06-19, 01:50:04,VALID,999.638,VALID,0,VALID,89.2284,VALID,0,VALID,24.2476,VALID,290,VALID,0.794141,
2011-06-19, 01:51:04,VALID,999.66,VALID,0,VALID,89.2208,VALID,0,VALID,24.2263,VALID,294,VALID,0.633203,
2011-06-19, 01:52:04,VALID,999.639,VALID,0,VALID,89.1674,VALID,0,VALID,24.2281,VALID,294,VALID,0.483984,
2011-06-19, 01:53:04,VALID,999.62,VALID,0,VALID,89.0148,VALID,0,VALID,24.2067,VALID,298,VALID,0.728906,
2011-06-19, 01:54:04,VALID,999.598,VALID,0,VALID,89.0377,VALID,0,VALID,24.2067,VALID,320,VALID,0.810156,
2011-06-19, 01:55:04,VALID,999.651,VALID,0,VALID,89.2132,VALID,0,VALID,24.2067,VALID,304,VALID,0.849609,
2011-06-19, 01:56:04,VALID,999.671,VALID,0,VALID,89.2589,VALID,0.112286,VALID,24.1872,VALID,300,VALID,0.574609,
2011-06-19, 01:57:04,VALID,999.685,VALID,0,VALID,89.2437,VALID,0,VALID,24.1872,VALID,300,VALID,0.503906,
2011-06-19, 01:58:04,VALID,999.701,VALID,0,VALID,89.2818,VALID,0,VALID,24.1677,VALID,300,VALID,0.574219,
2011-06-19, 01:59:04,VALID,999.737,VALID,0,VALID,89.3428,VALID,0,VALID,24.1677,VALID,300,VALID,0.555078,
2011-06-19, 02:00:04,VALID,999.79,VALID,0,VALID,89.3581,VALID,0.112286,VALID,24.1677,VALID,300,VALID,0.614062,
2011-06-19, 02:01:04,VALID,999.751,VALID,0,VALID,89.3657,VALID,0,VALID,24.15,VALID,334,VALID,0.839844,
2011-06-19, 02:02:04,VALID,999.749,VALID,0,VALID,89.4268,VALID,0,VALID,24.15,VALID,338,VALID,0.758984,
2011-06-19, 02:03:04,VALID,999.762,VALID,0,VALID,89.587,VALID,0,VALID,24.1305,VALID,338,VALID,0.687891,
2011-06-19, 02:04:04,VALID,999.752,VALID,0,VALID,89.6786,VALID,0,VALID,24.111,VALID,328,VALID,0.512109,
2011-06-19, 02:05:04,VALID,999.703,VALID,0,VALID,89.732,VALID,0,VALID,24.0915,VALID,308,VALID,0.693359,
2011-06-19, 02:06:04,VALID,999.674,VALID,0,VALID,89.7396,VALID,0,VALID,24.111,VALID,288,VALID,0.817187,
2011-06-19, 02:07:04,VALID,999.63,VALID,0,VALID,89.5717,VALID,0,VALID,24.1305,VALID,287,VALID,0.644922,
2011-06-19, 02:08:04,VALID,999.608,VALID,0,VALID,89.4497,VALID,0,VALID,24.1696,VALID,287,VALID,0.636328,
2011-06-19, 02:09:04,VALID,999.591,VALID,0,VALID,89.4039,VALID,0,VALID,24.1909,VALID,287,VALID,0.286719,
2011-06-19, 02:10:04,VALID,999.612,VALID,0,VALID,89.3734,VALID,0,VALID,24.1696,VALID,250,VALID,0.937109,
2011-06-19, 02:11:04,VALID,999.572,VALID,0,VALID,89.0453,VALID,0,VALID,24.1872,VALID,240,VALID,1.0375,
2011-06-19, 02:12:04,VALID,999.558,VALID,0,VALID,88.4807,VALID,0,VALID,24.2671,VALID,247,VALID,0.842578,
2011-06-19, 02:13:04,VALID,999.555,VALID,0,VALID,88.0916,VALID,0,VALID,24.3043,VALID,247,VALID,0.546875,
2011-06-19, 02:14:04,VALID,999.541,VALID,0,VALID,87.8551,VALID,0,VALID,24.3238,VALID,244,VALID,0.401172,
2011-06-19, 02:15:04,VALID,999.536,VALID,0,VALID,87.5041,VALID,0,VALID,24.3433,VALID,244,VALID,0.515625,
2011-06-19, 02:16:04,VALID,999.522,VALID,0,VALID,87.7559,VALID,0,VALID,24.3842,VALID,244,VALID,0.379297,
2011-06-19, 02:17:04,VALID,999.526,VALID,0,VALID,88.0611,VALID,0,VALID,24.3647,VALID,244,VALID,0.164844,
2011-06-19, 02:18:04,VALID,999.493,VALID,0,VALID,88.1679,VALID,0,VALID,24.3043,VALID,244,VALID,0.0015625,
2011-06-19, 02:19:04,VALID,999.497,VALID,0,VALID,88.1297,VALID,0,VALID,24.2866,VALID,244,VALID,0.291016,
2011-06-19, 02:20:04,VALID,999.528,VALID,0,VALID,88.2442,VALID,0,VALID,24.2281,VALID,244,VALID,0.241016,
2011-06-19, 02:21:04,VALID,999.489,VALID,0,VALID,88.4578,VALID,0,VALID,24.2086,VALID,244,VALID,0,
2011-06-19, 02:22:04,VALID,999.489,VALID,0,VALID,88.4578,VALID,0,VALID,24.1677,VALID,244,VALID,0.0285156,
2011-06-19, 02:23:04,VALID,999.454,VALID,0,VALID,88.5417,VALID,0,VALID,24.1696,VALID,244,VALID,0,
2011-06-19, 02:24:04,VALID,999.494,VALID,0,VALID,88.702,VALID,0,VALID,24.1092,VALID,244,VALID,0,
2011-06-19, 02:25:04,VALID,999.473,VALID,0,VALID,88.8546,VALID,0,VALID,24.0897,VALID,244,VALID,0.713281,
2011-06-19, 02:26:04,VALID,999.517,VALID,0,VALID,89.0224,VALID,0,VALID,24.072,VALID,241,VALID,0.530859,
2011-06-19, 02:27:04,VALID,999.48,VALID,0,VALID,88.9232,VALID,0,VALID,24.0915,VALID,233,VALID,0.416797,
2011-06-19, 02:28:04,VALID,999.519,VALID,0,VALID,88.5189,VALID,0,VALID,24.0897,VALID,233,VALID,0.0183594,
2011-06-19, 02:29:04,VALID,999.513,VALID,0,VALID,88.0534,VALID,0,VALID,24.111,VALID,233,VALID,0.0347656,
2011-06-19, 02:30:04,VALID,999.502,VALID,0,VALID,87.8322,VALID,0,VALID,24.0915,VALID,233,VALID,0,
2011-06-19, 02:31:04,VALID,999.559,VALID,0,VALID,87.672,VALID,0,VALID,24.072,VALID,233,VALID,0,
2011-06-19, 02:32:04,VALID,999.535,VALID,0,VALID,87.8474,VALID,0,VALID,24.0311,VALID,233,VALID,0,
2011-06-19, 02:33:04,VALID,999.55,VALID,0,VALID,87.9161,VALID,0,VALID,24.0134,VALID,233,VALID,0.0125,
2011-06-19, 02:34:04,VALID,999.51,VALID,0,VALID,88.4578,VALID,0,VALID,23.9744,VALID,122,VALID,0.449219,
2011-06-19, 02:35:04,VALID,999.55,VALID,0,VALID,88.0763,VALID,0,VALID,23.9159,VALID,110,VALID,0.576953,
2011-06-19, 02:36:04,VALID,999.492,VALID,0,VALID,87.5423,VALID,0,VALID,23.875,VALID,120,VALID,0.664453,
2011-06-19, 02:37:04,VALID,999.52,VALID,0,VALID,87.8322,VALID,0,VALID,23.9354,VALID,85,VALID,0.542969,
2011-06-19, 02:38:04,VALID,999.516,VALID,0,VALID,87.7711,VALID,0,VALID,23.9336,VALID,85,VALID,0.507031,
2011-06-19, 02:39:04,VALID,999.541,VALID,0,VALID,87.4736,VALID,0,VALID,23.9354,VALID,85,VALID,0.129297,
2011-06-19, 02:40:04,VALID,999.498,VALID,0,VALID,87.0463,VALID,0,VALID,23.9159,VALID,85,VALID,0.115625,
2011-06-19, 02:41:04,VALID,999.506,VALID,0,VALID,86.9853,VALID,0,VALID,23.8963,VALID,85,VALID,0.373047,
2011-06-19, 02:42:04,VALID,999.471,VALID,0,VALID,86.5809,VALID,0,VALID,23.8963,VALID,36,VALID,0.889844,
2011-06-19, 02:43:04,VALID,999.528,VALID,0,VALID,87.3515,VALID,0,VALID,23.8945,VALID,29,VALID,1.13281,
2011-06-19, 02:44:04,VALID,999.478,VALID,0,VALID,87.9848,VALID,0,VALID,23.9159,VALID,44,VALID,1.31094,
2011-06-19, 02:45:04,VALID,999.446,VALID,0,VALID,88.4044,VALID,0,VALID,23.8963,VALID,44,VALID,1.68281,
2011-06-19, 02:46:04,VALID,999.471,VALID,0,VALID,88.5189,VALID,0,VALID,23.8573,VALID,24,VALID,1.87031,
2011-06-19, 02:47:04,VALID,999.457,VALID,0,VALID,88.7935,VALID,0,VALID,23.7793,VALID,30,VALID,1.27422,
2011-06-19, 02:48:04,VALID,999.439,VALID,0,VALID,89.1597,VALID,0,VALID,23.7012,VALID,24,VALID,1.5,
2011-06-19, 02:49:04,VALID,999.425,VALID,0,VALID,89.4649,VALID,0,VALID,23.6232,VALID,25,VALID,1.32852,
2011-06-19, 02:50:04,VALID,999.473,VALID,0,VALID,89.7014,VALID,0,VALID,23.5646,VALID,25,VALID,0.546875,
2011-06-19, 02:51:04,VALID,999.43,VALID,0,VALID,89.8998,VALID,0,VALID,23.4866,VALID,25,VALID,0.021875,
2011-06-19, 02:52:04,VALID,999.468,VALID,0,VALID,90.1592,VALID,0,VALID,23.4458,VALID,25,VALID,0.290234,
2011-06-19, 02:53:04,VALID,999.473,VALID,0,VALID,90.5254,VALID,0,VALID,23.4671,VALID,25,VALID,0.336719,
2011-06-19, 02:54:04,VALID,999.44,VALID,0,VALID,90.7238,VALID,0,VALID,23.4866,VALID,25,VALID,0.402344,
2011-06-19, 02:55:04,VALID,999.461,VALID,0,VALID,90.8459,VALID,0,VALID,23.5274,VALID,22,VALID,0.828906,
2011-06-19, 02:56:04,VALID,999.484,VALID,0,VALID,90.7772,VALID,0,VALID,23.5061,VALID,7,VALID,0.626172,
2011-06-19, 02:57:04,VALID,999.481,VALID,0,VALID,90.5026,VALID,0,VALID,23.5061,VALID,7,VALID,0.142188,
2011-06-19, 02:58:04,VALID,999.5,VALID,0,VALID,90.3347,VALID,0,VALID,23.4263,VALID,7,VALID,0.285937,
2011-06-19, 02:59:04,VALID,999.507,VALID,0,VALID,90.4339,VALID,0,VALID,23.4263,VALID,7,VALID,0.492969,
2011-06-19, 03:00:04,VALID,999.511,VALID,0,VALID,90.6628,VALID,0,VALID,23.4653,VALID,7,VALID,0.575781,
2011-06-19, 03:01:04,VALID,999.506,VALID,0,VALID,90.7696,VALID,0,VALID,23.4866,VALID,6,VALID,0.639844,
2011-06-19, 03:02:04,VALID,999.526,VALID,0,VALID,90.7162,VALID,0,VALID,23.5043,VALID,307,VALID,0.716797,
2011-06-19, 03:03:05,VALID,999.531,VALID,0,VALID,90.5865,VALID,0,VALID,23.5433,VALID,317,VALID,0.76875,
2011-06-19, 03:04:05,VALID,999.553,VALID,0,VALID,90.411,VALID,0,VALID,23.5646,VALID,317,VALID,0.303516,
2011-06-19, 03:05:05,VALID,999.517,VALID,0,VALID,90.0829,VALID,0,VALID,23.5061,VALID,317,VALID,0.547656,
2011-06-19, 03:06:05,VALID,999.516,VALID,0,VALID,90.1745,VALID,0,VALID,23.4848,VALID,317,VALID,0.494531,
2011-06-19, 03:07:05,VALID,999.517,VALID,0,VALID,90.1897,VALID,0,VALID,23.4671,VALID,317,VALID,0.590234,
2011-06-19, 03:08:05,VALID,999.507,VALID,0,VALID,90.4186,VALID,0,VALID,23.4475,VALID,317,VALID,0.383984,
2011-06-19, 03:09:05,VALID,999.558,VALID,0,VALID,90.5254,VALID,0,VALID,23.4475,VALID,317,VALID,0.5,
2011-06-19, 03:10:05,VALID,999.547,VALID,0,VALID,90.3805,VALID,0,VALID,23.4067,VALID,317,VALID,0.533203,
2011-06-19, 03:11:05,VALID,999.552,VALID,0,VALID,90.1974,VALID,0,VALID,23.3482,VALID,317,VALID,0.434766,
2011-06-19, 03:12:05,VALID,999.576,VALID,0,VALID,90.2584,VALID,0,VALID,23.3305,VALID,317,VALID,0.434375,
2011-06-19, 03:13:05,VALID,999.547,VALID,0,VALID,90.4949,VALID,0,VALID,23.35,VALID,317,VALID,0.335156,
2011-06-19, 03:14:05,VALID,999.536,VALID,0,VALID,90.4797,VALID,0,VALID,23.3305,VALID,317,VALID,0.00429688,
2011-06-19, 03:15:05,VALID,999.533,VALID,0,VALID,90.5102,VALID,0,VALID,23.3305,VALID,317,VALID,0.425,
2011-06-19, 03:16:05,VALID,999.51,VALID,0,VALID,90.5407,VALID,0,VALID,23.35,VALID,317,VALID,0.348437,
2011-06-19, 03:17:05,VALID,999.529,VALID,0,VALID,90.4949,VALID,0,VALID,23.3305,VALID,317,VALID,0.15625,
2011-06-19, 03:18:05,VALID,999.511,VALID,0,VALID,90.3881,VALID,0,VALID,23.311,VALID,317,VALID,0,
2011-06-19, 03:19:05,VALID,999.482,VALID,0,VALID,90.4034,VALID,0,VALID,23.311,VALID,317,VALID,0.369922,
2011-06-19, 03:20:05,VALID,999.475,VALID,0,VALID,90.472,VALID,0,VALID,23.2702,VALID,317,VALID,0.327734,
2011-06-19, 03:21:05,VALID,999.438,VALID,0,VALID,90.4491,VALID,0,VALID,23.2915,VALID,317,VALID,0.216016,
2011-06-19, 03:22:05,VALID,999.45,VALID,0,VALID,90.3805,VALID,0,VALID,23.2915,VALID,318,VALID,0.696094,
2011-06-19, 03:23:05,VALID,999.444,VALID,0,VALID,90.3347,VALID,0,VALID,23.2507,VALID,31,VALID,0.782031,
2011-06-19, 03:24:05,VALID,999.427,VALID,0,VALID,90.3271,VALID,0,VALID,23.2719,VALID,42,VALID,0.844141,
2011-06-19, 03:25:05,VALID,999.418,VALID,0,VALID,90.3271,VALID,0,VALID,23.2507,VALID,66,VALID,1.02344,
2011-06-19, 03:26:05,VALID,999.409,VALID,0,VALID,90.3042,VALID,0,VALID,23.2507,VALID,66,VALID,0.885938,
2011-06-19, 03:27:05,VALID,999.43,VALID,0,VALID,90.3423,VALID,0,VALID,23.2524,VALID,70,VALID,1.07305,
2011-06-19, 03:28:05,VALID,999.378,VALID,0,VALID,90.472,VALID,0,VALID,23.2524,VALID,72,VALID,0.916406,
2011-06-19, 03:29:05,VALID,999.377,VALID,0,VALID,90.5865,VALID,0,VALID,23.2507,VALID,66,VALID,0.900781,
2011-06-19, 03:30:05,VALID,999.367,VALID,0,VALID,90.5636,VALID,0,VALID,23.2312,VALID,75,VALID,0.755078,
2011-06-19, 03:31:05,VALID,999.357,VALID,0,VALID,90.5483,VALID,0,VALID,23.2329,VALID,75,VALID,0.942578,
2011-06-19, 03:32:05,VALID,999.304,VALID,0,VALID,90.6628,VALID,0,VALID,23.2134,VALID,75,VALID,0.646875,
2011-06-19, 03:33:05,VALID,999.32,VALID,0,VALID,90.7314,VALID,0,VALID,23.1939,VALID,75,VALID,0.500391,
2011-06-19, 03:34:05,VALID,999.31,VALID,0,VALID,90.7849,VALID,0,VALID,23.1744,VALID,86,VALID,0.928125,
2011-06-19, 03:35:05,VALID,999.284,VALID,0,VALID,90.7772,VALID,0,VALID,23.1354,VALID,64,VALID,0.796094,
2011-06-19, 03:36:05,VALID,999.32,VALID,0,VALID,90.8459,VALID,0,VALID,23.0751,VALID,49,VALID,0.330859,
2011-06-19, 03:37:05,VALID,999.299,VALID,0,VALID,90.8917,VALID,0,VALID,23.0573,VALID,49,VALID,0.241406,
2011-06-19, 03:38:05,VALID,999.327,VALID,0,VALID,90.9603,VALID,0,VALID,23.0378,VALID,49,VALID,0.0109375,
2011-06-19, 03:39:05,VALID,999.302,VALID,0,VALID,91.09,VALID,0,VALID,23.0183,VALID,49,VALID,0.45,
2011-06-19, 03:40:05,VALID,999.323,VALID,0,VALID,91.2426,VALID,0,VALID,23.0183,VALID,345,VALID,0.627344,
2011-06-19, 03:41:05,VALID,999.299,VALID,0,VALID,91.3647,VALID,0,VALID,22.9988,VALID,337,VALID,0.4375,
2011-06-19, 03:42:05,VALID,999.317,VALID,0,VALID,91.4334,VALID,0,VALID,22.9988,VALID,337,VALID,0.190234,
2011-06-19, 03:43:05,VALID,999.33,VALID,0,VALID,91.4868,VALID,0,VALID,22.9793,VALID,337,VALID,0.00195313,
2011-06-19, 03:44:05,VALID,999.32,VALID,0,VALID,91.5936,VALID,0,VALID,22.9793,VALID,337,VALID,0.965625,
2011-06-19, 03:45:05,VALID,999.339,VALID,0,VALID,91.7538,VALID,0,VALID,22.9988,VALID,337,VALID,0.751953,
2011-06-19, 03:46:05,VALID,999.369,VALID,0,VALID,91.8377,VALID,0,VALID,23.0183,VALID,337,VALID,0.314453,